Find POEM-2

NORAD ID: 56308 Int'l Des: 2023-057 Owner: ISRO Country: IN operational
LEOCIRCULAR

リアルタイム位置

3D地球を読み込み中...

POEM-2について

説明を読み込み中...

次回通過

Passes for default location (London). Set your location on the main map for personalized predictions.

高度履歴

Loading altitude history...

軌道要素

1 56308U 23057A 26106.95147381 .00001767 00000-0 95127-4 0 9991
2 56308 9.8891 346.9239 0020351 144.3850 215.7722 14.94808922163082
Epoch: Apr 16, 2026 • Age: 11 hours

現在のステータス

高度 571.5 km
速度 7.58 km/s
衛星直下点 -3.55°S, 161.11°W
打ち上げ日 Apr 22, 2023
運用期間 2.9 years
タイプ other

技術仕様

分類 Payload
質量 50.00 kg
乾燥質量 50.00 kg
総質量 50.00 kg
長さ 0.50 m
直径 0.30 m
スパン 0.50 m
形状 Box
製造者 ISAC
バスタイプ POEM
フェーズステータス Attached in Orbit
所有者/国 ISRO/IN

Most Searched